Temp
97 98 97 98 97 97 94 93 92 91 91 91 90 91 91 94 96 97 92 91 91 91 90 96 92 92 92 91 90 90 87 89 85 80 79 80 84 88 84 84 85 83 84
96 97 97 98 97 95 94 93 92 90 90 94 92 93 94 96 97 98 93 93 92 90 91 91 92 91 94 89 89 88 90 90 91 84 80 76 82 88 91 91 89 88 89
95 98 97 97 98 95 94 93 91 91 90 92 92 91 92 91 92 93 93 93 92 92 91 90 90 89 90 92 88 88 88 88 90 91 84 83 79 81 88 89 90 88 90
97 100 101 100 100 98 98 95 92 91 91 90 91 88 90 90 94 94 97 95 92 91 92 90 88 88 93 90 90 91 90 87 88 89 93 91 87 77 75 80 85 87 87
98 98 101 102 102 101 99 97 94 91 91 90 90 90 88 93 95 94 91 90 91 91 92 91 89 89 92 89 89 87 86 91 90 91 90 88 89 88 84 73 78 86 88
100 101 102 102 101 101 98 97 93 89 89 89 88 88 89 89 91 91 92 94 95 93 90 91 89 89 89 88 89 87 86 86 88 91 90 90 88 87 87 79 80 82 84
101 100 100 100 99 98 97 96 92 87 88 88 89 88 88 88 87 88 92 92 95 95 92 89 89 90 87 88 88 86 87 86 86 84 90 92 92 93 91 89 84 84 85
102 101 101 101 100 98 96 94 91 88 88 89 89 88 88 92 92 91 94 95 96 97 93 90 91 89 88 88 87 89 89 88 87 84 84 90 92 92 92 90 84 82 83
100 101 103 103 102 98 96 95 92 89 89 91 89 88 88 88 92 91 92 95 93 95 91 91 89 89 88 88 86 89 86 86 85 86 84 86 92 91 92 92 92 87 81
100 103 102 103 103 102 100 97 94 90 90 92 91 91 90 88 89 91 89 91 93 92 91 90 90 89 88 87 85 88 86 83 87 88 84 83 90 89 90 91 91 91 88
101 103 103 101 102 102 101 97 94 89 80 78 82 84 90 91 90 90 90 90 91 90 89 88 88 88 87 87 85 86 87 82 83 84 83 82 84 88 90 90 90 89 88
100 101 102 100 100 98 98 94 90 87 78 82 81 82 86 88 92 91 91 92 90 90 89 89 88 88 87 87 85 84 87 83 83 83 82 82 87 81 82 87 84 87 87
95 99 99 96 96 95 91 89 88 89 87 89 87 89 87 90 90 91 90 91 90 89 89 88 87 87 87 87 86 86 85 85 84 84 82 82 83 81 86 83 86 87 86
95 96 96 96 94 91 88 87 88 91 89 90 89 87 86 89 89 89 89 90 89 88 87 87 86 87 88 87 88 87 85 85 85 85 84 83 82 81 81 81 81 83 84
96 96 96 93 91 89 88 87 88 88 88 87 87 86 86 87 87 87 88 88 87 88 88 87 87 88 88 90 87 87 85 82 81 79 76 82 82 77 79 85 80 81 80
94 93 91 90 90 89 88 87 87 86 86 86 86 88 87 87 87 86 86 86 86 87 87 87 87 87 91 79 76 83 85 81 78 75 74 75 75 73 71 71 71 78 78
91 90 91 93 92 91 89 88 88 88 86 86 87 87 87 87 87 88 87 86 86 88 86 86 87 86 87 73 72 74 78 77 73 71 74 71 73 73 75 69 68 70 70
91 91 95 96 96 98 93 90 90 89 88 88 89 89 89 89 88 88 87 86 84 84 84 86 85 85 87 69 68 71 69 67 68 70 73 76 70 73 73 74 77 79 80
93 95 97 99 95 93 92 91 91 90 90 89 89 89 90 90 89 88 88 88 88 86 84 84 84 83 85 65 66 69 70 71 70 71 73 76 73 70 69 75 74 78 81
97 97 99 99 98 96 96 92 91 91 89 90 90 90 89 89 88 88 87 87 88 88 86 86 85 79 84 63 64 67 71 69 70 70 71 67 73 66 66 75 78 77 80
95 98 98 98 96 96 96 93 93 92 93 93 91 89 89 87 87 86 86 86 86 86 86 86 84 82 80 78 62 63 71 75 73 73 70 70 64 61 62 65 78 77 81
95 97 96 96 97 95 94 92 91 93 92 91 90 88 88 90 90 86 86 86 85 84 84 84 85 90 82 68 61 60 64 70 73 71 73 72 60 58 59 62 65 64 69
95 97 95 94 95 93 93 91 91 90 89 88 87 87 87 87 86 84 84 87 88 88 87 89 88 89 90 84 62 59 60 62 68 74 72 64 57 57 59 61 62 63 78
95 97 94 93 88 89 89 89 87 87 86 86 87 87 86 84 86 89 92 91 91 89 89 89 89 90 90 88 84 74 64 61 62 64 66 64 62 61 65 62 64 70 75
94 94 91 89 88 88 87 87 86 87 88 87 88 87 90 88 87 88 90 89 88 83 87 88 88 88 87 87 75 75 79 75 66 64 66 63 61 59 61 63 64 67 73
89 88 88 88 86 86 85 85 86 86 85 85 89 88 88 89 89 89 88 67 61 59 57 55 65 83 67 55 54 53 53 53 53 63 64 62 61 62 62 63 64 67 73
MSLP
1010.31 1010.84 1011.60 1012.15 1012.65 1013.30 1014.07 1014.84 1015.43 1015.91 1016.43 1016.61 1016.66 1016.59 1016.43 1016.47 1016.50 1016.60 1017.27 1017.37 1017.51 1017.59 1017.81 1017.32 1017.92 1017.93 1017.78 1017.97 1018.43 1018.49 1018.73 1018.53 1019.41 1019.47 1019.59 1019.79 1019.58 1019.50 1020.01 1020.11 1020.33 1020.69 1020.99
1009.51 1010.16 1010.82 1011.49 1012.19 1012.85 1013.55 1014.33 1014.92 1015.67 1016.16 1016.15 1016.42 1016.39 1016.31 1016.28 1016.20 1016.48 1016.97 1017.07 1017.20 1017.44 1017.47 1017.60 1017.78 1017.86 1017.63 1018.23 1018.50 1018.59 1018.15 1018.33 1018.69 1018.69 1019.06 1019.25 1019.58 1019.28 1019.34 1019.64 1019.96 1020.25 1020.38
1008.64 1009.10 1009.93 1010.58 1011.33 1012.08 1012.85 1013.60 1014.35 1015.01 1015.71 1015.89 1016.34 1016.67 1016.74 1016.80 1016.71 1016.66 1016.67 1016.64 1017.01 1017.17 1017.31 1017.47 1017.64 1017.84 1017.92 1017.70 1018.40 1018.55 1018.33 1018.07 1018.52 1018.18 1018.37 1017.80 1018.25 1019.55 1019.83 1019.84 1020.10 1020.31 1020.41
1008.09 1008.22 1008.64 1009.55 1010.28 1011.08 1012.05 1013.04 1013.95 1014.60 1015.22 1015.72 1015.83 1016.29 1016.18 1016.08 1015.97 1016.15 1016.02 1016.30 1016.77 1016.98 1017.17 1017.48 1017.64 1017.83 1017.38 1017.89 1018.10 1018.35 1018.18 1018.33 1017.88 1018.45 1018.38 1018.31 1018.22 1019.18 1020.11 1020.73 1020.71 1020.80 1020.79
1007.06 1007.49 1007.76 1008.27 1009.23 1010.21 1011.12 1012.17 1013.35 1014.23 1014.72 1015.30 1015.57 1016.02 1016.25 1015.98 1016.02 1016.10 1016.39 1016.56 1016.74 1016.85 1017.01 1017.19 1017.37 1017.52 1017.50 1017.95 1018.16 1018.40 1018.54 1018.20 1017.89 1017.69 1017.91 1018.42 1018.61 1018.70 1018.35 1020.11 1020.77 1020.74 1020.83
1005.75 1006.52 1007.34 1008.02 1008.87 1009.90 1010.95 1011.79 1012.83 1013.87 1014.59 1015.02 1015.58 1015.76 1015.82 1016.04 1015.94 1016.16 1016.07 1016.05 1016.18 1016.55 1017.04 1017.06 1017.40 1017.61 1017.67 1018.06 1018.11 1018.40 1018.61 1018.62 1018.51 1018.07 1018.01 1017.81 1017.87 1018.02 1018.15 1018.63 1019.85 1019.91 1020.69
1004.95 1005.78 1006.52 1007.48 1008.48 1009.55 1010.63 1011.55 1012.42 1013.37 1014.08 1014.67 1015.03 1015.40 1015.79 1016.05 1016.15 1016.32 1016.02 1015.79 1015.74 1015.98 1016.37 1016.93 1017.20 1017.41 1017.84 1017.98 1018.01 1018.44 1018.52 1018.78 1018.84 1019.03 1018.29 1018.05 1017.76 1017.67 1017.79 1017.81 1019.06 1019.11 1020.25
1004.23 1005.10 1005.78 1006.72 1007.79 1008.89 1009.96 1010.98 1011.95 1012.93 1013.58 1013.99 1014.51 1015.01 1015.51 1015.70 1015.87 1015.93 1015.69 1015.60 1015.53 1015.55 1016.03 1016.59 1016.77 1017.25 1017.72 1017.85 1018.12 1018.25 1018.36 1018.70 1018.90 1019.11 1019.17 1018.46 1018.29 1018.34 1018.13 1018.08 1018.54 1018.79 1019.65
1003.63 1004.16 1004.90 1005.90 1007.04 1008.27 1009.47 1010.48 1011.44 1012.49 1013.34 1013.93 1014.61 1015.07 1015.47 1015.51 1015.14 1015.47 1015.76 1015.70 1015.84 1015.85 1016.31 1016.44 1016.79 1017.08 1017.45 1017.66 1017.93 1018.01 1018.47 1018.80 1019.08 1019.01 1019.25 1019.14 1018.51 1018.69 1018.56 1018.43 1018.10 1018.25 1018.36
1003.46 1003.88 1004.66 1005.39 1006.33 1007.47 1008.71 1010.09 1011.23 1012.50 1013.16 1013.69 1014.34 1014.29 1014.52 1015.19 1015.29 1015.36 1015.57 1015.51 1015.51 1015.94 1016.20 1016.43 1016.58 1016.87 1017.11 1017.35 1017.82 1017.80 1018.23 1018.62 1018.66 1018.70 1019.03 1019.21 1018.72 1019.02 1018.98 1018.79 1018.55 1018.31 1018.03
1003.09 1003.57 1004.30 1005.57 1006.23 1007.21 1008.17 1009.77 1011.32 1012.37 1013.66 1013.92 1013.84 1013.76 1013.90 1014.10 1014.74 1014.88 1015.04 1015.31 1015.41 1015.63 1015.94 1016.19 1016.45 1016.64 1016.88 1017.13 1017.47 1017.57 1017.67 1018.35 1018.51 1018.71 1018.95 1019.09 1019.15 1018.91 1018.80 1018.91 1018.78 1018.58 1018.84
1003.19 1003.63 1004.25 1005.58 1006.49 1007.39 1008.42 1009.93 1011.03 1011.88 1011.30 1010.90 1011.85 1012.86 1013.41 1013.79 1013.68 1014.12 1014.29 1014.57 1014.85 1015.15 1015.52 1015.75 1016.01 1016.25 1016.49 1016.79 1017.12 1017.42 1017.46 1018.11 1018.34 1018.62 1018.87 1018.94 1018.87 1019.27 1019.26 1019.08 1019.02 1018.72 1018.85
1003.61 1003.87 1004.71 1005.91 1006.79 1007.82 1008.81 1010.00 1010.65 1010.71 1010.81 1011.30 1011.95 1012.43 1013.12 1013.20 1013.39 1013.55 1013.76 1014.05 1014.27 1014.55 1014.90 1015.29 1015.49 1015.65 1015.88 1016.18 1016.49 1016.80 1017.03 1017.33 1017.55 1017.89 1018.38 1018.55 1018.73 1018.75 1018.49 1019.10 1018.79 1018.85 1019.21
1003.86 1004.51 1005.31 1006.12 1007.16 1008.09 1009.11 1009.85 1010.35 1010.57 1010.71 1011.18 1011.77 1012.25 1012.59 1012.81 1013.01 1013.20 1013.52 1013.81 1013.97 1014.12 1014.39 1014.59 1014.85 1015.07 1015.22 1015.39 1015.75 1016.07 1016.43 1016.81 1017.08 1017.03 1017.03 1017.45 1018.02 1018.53 1018.48 1018.70 1018.96 1019.05 1018.98
1003.97 1004.68 1005.23 1006.27 1007.24 1008.21 1009.08 1009.87 1010.27 1010.71 1010.96 1011.29 1011.80 1012.31 1012.80 1012.89 1012.98 1013.25 1013.40 1013.49 1013.58 1013.62 1013.82 1014.01 1014.11 1014.29 1014.39 1014.54 1015.03 1015.23 1015.68 1016.13 1016.45 1016.90 1016.61 1016.37 1016.84 1017.55 1018.41 1018.16 1018.52 1018.73 1019.27
1004.33 1005.10 1005.91 1006.79 1007.48 1008.20 1008.87 1009.65 1010.25 1010.68 1011.03 1011.35 1011.70 1012.04 1012.35 1012.50 1012.52 1012.76 1012.91 1013.05 1013.15 1013.15 1013.21 1013.30 1013.39 1013.40 1013.34 1013.48 1014.18 1014.77 1015.07 1015.83 1016.31 1016.94 1017.33 1016.97 1017.64 1017.50 1018.49 1018.45 1018.46 1018.58 1018.89
1004.83 1005.65 1006.17 1006.78 1007.47 1008.18 1008.74 1009.30 1010.03 1010.53 1010.88 1011.11 1011.32 1011.48 1011.76 1012.00 1012.06 1012.08 1012.20 1012.27 1012.42 1012.38 1012.41 1012.61 1012.60 1012.57 1012.69 1012.73 1013.24 1014.18 1015.47 1016.93 1018.03 1017.54 1016.93 1017.21 1017.22 1017.38 1018.25 1018.44 1018.46 1018.86 1018.88
1005.18 1005.88 1006.20 1006.98 1007.70 1008.02 1008.64 1009.26 1009.87 1010.37 1010.67 1010.87 1011.17 1011.34 1011.56 1011.67 1011.74 1011.79 1011.85 1011.97 1012.12 1012.22 1012.09 1011.94 1012.01 1011.97 1012.00 1012.25 1012.98 1014.02 1014.91 1013.31 1015.15 1015.59 1016.53 1016.24 1017.03 1017.14 1017.41 1017.67 1017.65 1018.08 1018.45
1005.58 1006.05 1006.56 1007.10 1007.87 1008.48 1008.56 1009.07 1009.61 1010.05 1010.40 1010.66 1011.05 1011.31 1011.45 1011.54 1011.60 1011.63 1011.69 1011.72 1011.69 1011.75 1011.85 1011.78 1011.69 1011.69 1011.39 1011.64 1012.62 1013.29 1013.43 1013.82 1014.44 1014.55 1015.29 1015.51 1016.08 1016.69 1017.17 1017.47 1017.59 1017.55 1017.66
1005.53 1005.85 1006.48 1007.45 1008.15 1008.39 1008.53 1008.99 1009.53 1009.83 1010.03 1010.42 1010.85 1011.15 1011.45 1011.59 1011.63 1011.73 1011.75 1011.73 1011.59 1011.36 1011.57 1011.35 1011.24 1011.17 1011.11 1011.71 1012.47 1013.00 1013.67 1014.11 1014.33 1014.23 1015.06 1015.54 1015.61 1015.67 1016.38 1016.91 1016.80 1016.82 1017.03
1005.72 1006.04 1006.66 1007.17 1008.06 1008.28 1008.42 1008.89 1009.24 1009.57 1009.72 1010.07 1010.59 1011.00 1011.32 1011.49 1011.54 1011.60 1011.55 1011.48 1011.36 1011.24 1010.95 1010.73 1010.76 1010.85 1010.86 1011.12 1012.09 1012.46 1012.79 1012.81 1013.30 1013.67 1014.37 1014.82 1015.37 1015.34 1015.67 1016.33 1016.20 1016.27 1016.85
1005.87 1006.37 1006.84 1007.37 1008.17 1008.74 1008.97 1009.10 1009.35 1009.55 1009.88 1010.25 1010.53 1010.86 1011.17 1011.19 1011.15 1011.35 1011.25 1011.12 1010.99 1010.81 1010.51 1010.32 1010.11 1009.63 1010.40 1010.79 1011.57 1012.15 1012.21 1012.35 1012.64 1012.97 1013.52 1013.94 1014.33 1014.97 1015.29 1015.96 1016.13 1016.33 1016.37
1006.02 1006.55 1007.05 1007.61 1008.22 1008.91 1009.27 1009.41 1009.79 1010.10 1010.15 1010.49 1010.94 1011.17 1011.18 1011.21 1011.27 1011.19 1010.94 1010.64 1010.10 1009.90 1009.61 1009.22 1009.09 1008.95 1008.93 1010.12 1010.84 1011.26 1011.80 1012.14 1012.39 1012.38 1012.47 1012.52 1013.45 1014.43 1015.12 1015.43 1015.82 1015.81 1015.66
1006.22 1006.79 1007.33 1007.77 1008.77 1009.39 1009.72 1009.87 1010.39 1010.65 1010.55 1010.61 1010.77 1010.90 1010.92 1010.85 1010.84 1010.47 1009.93 1009.69 1009.40 1009.25 1009.02 1008.78 1008.59 1008.47 1008.55 1008.92 1009.94 1010.99 1011.45 1011.88 1012.21 1012.24 1012.35 1012.69 1013.36 1014.04 1014.40 1014.93 1015.15 1015.29 1015.05
1006.63 1007.22 1007.79 1008.39 1008.96 1009.56 1009.81 1010.22 1010.58 1010.60 1010.52 1010.67 1010.69 1010.69 1010.37 1010.33 1010.25 1009.89 1009.64 1009.62 1009.40 1009.50 1009.39 1009.15 1008.94 1008.59 1008.53 1008.75 1008.97 1009.69 1010.35 1010.82 1011.14 1011.60 1012.05 1012.59 1013.11 1013.73 1014.07 1014.34 1014.43 1014.61 1014.52
1007.77 1008.15 1008.55 1008.93 1009.39 1009.90 1010.25 1010.47 1010.72 1010.80 1010.93 1010.79 1010.31 1010.32 1010.43 1010.00 1009.69 1009.44 1009.19 1009.07 1009.29 1009.45 1009.68 1009.80 1010.05 1009.29 1009.25 1009.46 1009.81 1010.03 1010.15 1010.35 1010.88 1011.44 1011.48 1011.79 1012.21 1012.53 1012.84 1013.18 1013.37 1013.52 1013.31
Wind_Speed
17 17 15 15 13 13 13 14 13 11 8 8 7 6 6 4 3 2 2 4 5 5 3 3 2 4 3 3 1 4 4 6 8 7 7 7 9 11 9 9 8 6 5
18 17 16 15 16 15 14 14 14 13 11 8 6 5 4 3 3 1 3 4 5 4 5 3 2 3 2 2 2 4 4 5 5 8 6 6 6 7 8 8 7 7 6
19 19 18 17 16 16 17 16 16 14 13 11 7 5 4 3 5 4 5 5 6 5 4 4 4 4 5 4 3 6 5 6 4 2 4 5 5 7 5 6 7 6 7
18 18 20 19 17 17 15 15 15 15 13 13 9 9 6 6 5 5 3 3 5 6 5 5 5 4 3 1 4 5 4 5 6 5 2 4 6 3 5 2 5 6 6
20 19 18 18 17 15 14 14 14 14 13 13 11 9 9 6 5 5 3 5 4 5 5 5 4 4 5 3 2 3 6 5 6 5 5 3 6 3 2 7 6 5 6
21 20 17 15 14 12 12 12 13 13 13 13 14 12 10 8 5 6 6 6 5 6 7 7 5 4 4 5 4 4 4 5 4 5 3 6 6 7 5 7 8 8 6
19 18 18 16 15 14 13 12 13 14 14 14 14 13 12 10 9 8 8 7 5 5 6 7 6 6 6 5 4 4 3 3 5 4 6 6 6 4 5 4 6 6 7
18 19 20 18 17 16 16 15 14 14 15 15 14 12 12 9 9 9 8 7 6 4 2 7 6 6 6 6 5 5 4 2 4 5 6 6 5 4 4 6 7 6 7
19 20 19 18 17 16 16 16 15 13 11 11 9 10 10 12 10 10 8 8 7 5 5 6 7 7 7 7 6 5 4 2 4 3 4 6 4 4 5 6 5 7 7
16 15 15 16 15 16 15 14 13 11 10 7 7 11 13 13 12 10 11 10 8 7 6 7 8 8 8 8 8 6 6 6 5 4 3 4 4 4 5 5 6 7 7
12 14 14 12 13 13 15 14 13 14 10 8 10 12 12 13 12 12 11 11 10 9 9 9 9 9 9 10 9 8 6 8 6 5 5 6 4 6 4 5 6 6 6
7 11 13 12 11 12 13 14 16 18 17 16 12 10 13 12 12 12 12 12 12 11 11 10 10 10 11 10 11 11 7 8 7 6 6 7 6 6 5 6 6 6 5
8 11 14 11 12 12 13 14 17 18 18 11 8 10 13 12 12 13 11 12 12 12 12 12 13 13 12 13 13 12 11 11 10 8 7 7 8 8 7 5 5 7 6
11 14 14 14 12 12 12 13 14 15 14 9 7 6 6 9 10 10 10 11 11 12 12 13 13 14 14 14 13 13 12 11 10 12 12 11 10 10 9 8 7 6 7
15 14 15 13 13 12 11 11 10 10 10 9 7 5 5 4 5 8 11 10 10 11 13 14 14 15 15 13 15 15 14 13 12 9 9 11 12 10 9 8 9 7 9
13 15 14 14 13 13 13 11 10 9 7 7 7 7 8 8 9 10 10 9 11 12 12 14 14 15 13 13 15 14 14 13 10 8 9 4 4 6 8 9 6 6 10
16 16 16 15 14 14 13 13 11 9 7 5 4 3 4 6 6 6 7 9 10 11 11 13 13 14 15 11 17 15 9 5 6 7 11 9 8 10 10 11 6 8 6
17 15 16 16 15 16 15 14 13 11 9 7 5 4 2 0 2 4 5 6 6 8 10 11 11 11 13 12 15 19 15 9 18 15 15 15 9 9 9 8 11 11 11
15 14 14 15 14 15 15 14 13 12 10 8 6 4 2 2 2 3 4 5 6 7 8 8 10 12 14 10 18 22 17 14 13 14 13 14 13 11 13 11 10 11 11
15 14 16 16 14 14 15 14 12 11 10 8 7 5 3 2 3 4 5 4 6 7 6 8 8 10 12 12 19 18 9 9 9 9 12 14 15 16 18 13 14 14 14
15 14 14 13 12 12 12 12 12 10 10 10 8 5 2 1 2 3 5 5 7 7 8 7 7 7 8 7 20 21 12 11 10 11 11 11 18 15 19 17 12 13 13
16 15 12 11 10 8 7 8 8 9 8 7 6 4 2 2 2 4 5 6 7 8 8 8 8 7 6 6 16 18 20 14 11 12 10 12 15 16 17 15 13 8 11
13 13 12 11 9 8 6 7 5 5 6 4 3 3 2 3 4 5 7 8 8 8 8 8 7 8 5 6 8 17 19 20 10 9 10 9 20 20 17 21 15 13 11
11 11 11 11 8 7 8 5 4 3 4 3 3 3 5 3 6 7 8 8 9 9 10 9 8 8 7 5 5 7 8 12 8 6 4 7 12 16 14 13 11 9 11
6 7 8 7 6 5 5 5 5 3 2 2 4 5 7 6 7 8 8 9 9 7 10 9 9 9 9 5 5 6 6 7 9 9 5 5 6 9 9 8 9 10 12
5 5 5 6 6 6 6 5 4 2 3 5 5 6 7 8 8 9 9 7 12 11 8 10 8 10 8 7 4 10 10 10 12 6 6 8 9 10 11 11 11 13 17
Wind_Direction
195 192 196 195 196 194 190 195 198 190 194 201 206 208 220 203 223 231 189 219 199 197 195 249 192 236 245 29 143 152 143 105 124 111 99 104 126 117 130 139 131 133 130
195 194 192 197 201 200 202 202 204 195 200 204 213 236 227 216 287 223 197 233 195 190 220 233 200 239 186 181 174 219 157 142 155 136 145 112 70 94 93 97 105 102 129
197 191 195 200 198 202 203 205 205 197 202 215 202 204 236 236 228 210 220 206 212 210 235 214 260 213 260 173 189 195 208 170 186 255 262 163 120 124 80 106 97 105 99
202 202 197 199 202 205 203 207 203 202 199 197 204 214 231 235 228 240 235 249 221 218 217 218 207 212 218 128 178 197 225 276 175 190 221 351 121 176 142 102 110 116 124
204 205 206 198 203 201 201 202 204 203 203 195 213 202 225 223 233 238 265 254 188 224 210 218 208 197 225 174 228 193 227 196 283 210 172 183 185 239 171 144 162 166 145
201 201 204 202 204 201 202 200 196 201 201 196 202 206 214 234 243 230 247 242 208 193 205 210 209 196 200 209 198 207 221 267 269 280 254 228 208 188 213 143 176 177 172
200 203 203 196 198 199 199 199 193 193 195 198 198 201 209 215 229 241 233 263 234 222 186 215 208 193 206 201 220 210 261 231 263 252 257 249 265 286 231 194 173 181 159
196 199 203 201 196 195 193 193 190 194 193 194 203 200 204 216 224 225 257 237 246 241 137 201 207 201 195 204 201 221 242 204 242 248 269 279 252 241 243 256 160 185 176
195 194 196 200 192 191 193 192 187 190 194 197 203 214 217 228 219 236 225 231 243 258 215 211 203 196 198 202 194 232 218 218 227 229 247 260 252 260 260 251 220 225 192
196 196 193 196 189 187 186 183 178 169 171 188 211 211 209 222 230 227 230 242 242 231 236 221 211 205 203 201 201 206 192 206 212 233 198 246 249 239 253 261 252 251 272
189 195 184 184 181 181 174 165 153 143 128 162 242 209 223 209 218 227 228 234 232 230 222 219 223 218 212 206 205 225 196 205 206 227 217 224 238 258 242 246 258 249 248
180 182 166 158 160 170 157 151 152 165 193 207 173 193 206 227 213 222 224 228 231 227 233 224 219 219 218 214 213 215 211 213 214 216 226 234 224 226 239 247 258 246 218
140 163 134 148 146 157 151 164 169 187 200 193 167 213 211 212 226 233 227 235 229 229 228 225 223 220 217 216 215 214 211 206 209 207 215 231 232 226 248 236 239 220 223
134 133 141 143 146 150 160 172 184 198 215 217 191 173 214 220 223 233 241 240 238 234 232 228 227 228 224 219 218 211 211 208 206 205 201 205 216 236 218 213 209 243 221
131 137 135 135 142 148 153 167 178 203 230 251 231 216 215 230 241 253 256 251 246 243 239 239 231 229 227 224 216 214 206 207 210 223 225 206 208 196 238 220 202 199 227
129 121 131 141 143 146 146 151 164 182 199 231 260 254 248 255 249 247 250 252 249 248 248 243 238 234 233 214 201 215 203 206 210 222 235 224 231 186 222 245 294 233 215
121 123 129 131 131 130 135 136 143 148 160 175 205 223 238 247 248 252 255 256 254 255 249 244 242 241 240 217 181 183 171 99 323 263 248 224 217 195 203 208 217 241 247
123 125 126 124 135 135 127 129 133 135 134 132 134 131 148 168 313 300 289 284 272 258 259 252 247 245 246 191 184 145 125 158 214 228 235 233 219 206 195 198 193 203 204
133 136 135 134 132 138 134 131 132 133 134 129 128 123 91 20 350 312 304 296 290 282 270 266 260 254 255 189 169 167 184 199 215 198 221 227 211 199 176 195 199 201 204
142 146 142 146 143 142 137 133 138 143 134 129 121 117 96 23 352 338 313 301 278 256 266 279 270 269 267 163 178 184 187 204 205 184 214 234 230 182 180 201 200 202 200
151 151 153 152 160 148 147 159 156 162 150 142 143 137 112 14 339 318 310 302 290 297 283 271 250 264 261 207 187 197 201 206 201 203 211 216 213 181 178 202 205 211 204
158 167 169 167 168 169 178 178 182 162 155 153 148 138 134 298 330 300 295 292 285 275 269 275 280 268 256 245 195 197 210 202 205 211 216 222 181 180 182 196 226 205 198
171 179 173 175 183 182 206 208 194 188 165 157 172 218 228 263 273 285 291 286 266 260 272 276 281 284 244 258 200 205 212 224 223 220 226 170 166 180 191 197 192 175 203
182 188 185 179 169 185 187 200 163 194 164 184 241 274 275 286 281 294 292 294 292 288 290 284 281 283 284 251 228 215 215 234 226 239 190 178 177 187 200 183 186 197 202
144 161 178 169 165 167 142 140 149 167 207 259 287 283 278 295 298 274 303 304 299 324 299 301 302 296 290 329 333 222 217 213 210 198 180 158 168 179 191 192 193 202 210
114 115 123 130 122 125 126 109 91 56 327 290 284 325 308 310 306 307 304 240 233 256 250 258 260 284 283 300 226 226 230 216 155 188 190 193 190 196 191 197 198 205 212